• In Latvia
  • List of Countries
  • For 7 days
  • Water Temperature
  • Satellite Maps
  • Weather Map
  • Weather Widgets
  • user-avatar
    Login

    Hourly Weather Cateleni

    Today, 17 October, Wednesday

    Time Temperature Precipitation Wind Pressure Humidity
    00:00 +16°C° 0 mm 1 mps 761 mmHg 55%
    01:00 +16°C° 0 mm 1 mps 761 mmHg 57%
    02:00 +15°C° 0 mm 1 mps 761 mmHg 59%
    03:00 +15°C° 0 mm 1 mps 761 mmHg 61%
    04:00 +14°C° 0 mm 1 mps 761 mmHg 63%
    05:00 +14°C° 0 mm 1 mps 761 mmHg 65%
    06:00 +15°C° 0 mm 1 mps 761 mmHg 63%
    07:00 +15°C° 0 mm 1 mps 761 mmHg 62%
    08:00 +16°C° 0 mm 1 mps 761 mmHg 61%
    09:00 +18°C° 0 mm 2 mps 761 mmHg 55%
    10:00 +20°C° 0 mm 2 mps 761 mmHg 49%
    11:00 +22°C° 0 mm 3 mps 760 mmHg 44%
    12:00 +24°C° 0 mm 3 mps 760 mmHg 41%
    13:00 +25°C° 0 mm 3 mps 760 mmHg 38%
    14:00 +25°C° 0 mm 3 mps 760 mmHg 35%
    15:00 +24°C° 0 mm 3 mps 759 mmHg 38%
    16:00 +22°C° 0 mm 3 mps 759 mmHg 42%
    17:00 +21°C° 0 mm 2 mps 759 mmHg 45%
    18:00 +20°C° 0 mm 2 mps 759 mmHg 49%
    19:00 +20°C° 0 mm 1 mps 759 mmHg 53%
    20:00 +19°C° 0 mm 1 mps 759 mmHg 56%
    21:00 +18°C° 0 mm 1 mps 759 mmHg 59%
    22:00 +18°C° 0 mm 1 mps 759 mmHg 61%
    23:00 +16°C° 0 mm 1 mps 759 mmHg 63%

    Tomorrow, 18 October, Thursday

    Time Temperature Precipitation Wind Pressure Humidity
    00:00 +16°C° 0 mm 1 mps 759 mmHg 65%
    01:00 +15°C° 0 mm 1 mps 759 mmHg 68%
    02:00 +15°C° 0 mm 1 mps 759 mmHg 70%
    03:00 +14°C° 0 mm 1 mps 759 mmHg 71%
    04:00 +14°C° 0 mm 1 mps 758 mmHg 73%
    05:00 +14°C° 0 mm 1 mps 758 mmHg 75%
    06:00 +14°C° 0 mm 1 mps 758 mmHg 72%
    07:00 +15°C° 0 mm 1 mps 758 mmHg 69%
    08:00 +15°C° 0 mm 2 mps 758 mmHg 65%
    09:00 +17°C° 0 mm 2 mps 758 mmHg 59%
    10:00 +19°C° 0 mm 2 mps 758 mmHg 52%
    11:00 +21°C° 0 mm 3 mps 758 mmHg 45%
    12:00 +22°C° 0 mm 3 mps 757 mmHg 42%
    13:00 +24°C° 0 mm 3 mps 757 mmHg 39%
    14:00 +25°C° 0 mm 3 mps 757 mmHg 36%
    15:00 +24°C° 0 mm 2 mps 756 mmHg 38%
    16:00 +23°C° 0 mm 2 mps 756 mmHg 41%
    17:00 +20°C° 0 mm 2 mps 756 mmHg 43%
    18:00 +20°C° 0 mm 1 mps 756 mmHg 45%
    19:00 +19°C° 0 mm 1 mps 756 mmHg 48%
    20:00 +18°C° 0 mm 1 mps 756 mmHg 50%
    21:00 +18°C° 0 mm 1 mps 756 mmHg 52%
    22:00 +18°C° 0 mm 1 mps 756 mmHg 54%
    23:00 +15°C° 0 mm 0 mps 756 mmHg 56%

    Day after tomorrow, 19 October, Friday

    Time Temperature Precipitation Wind Pressure Humidity
    00:00 +15°C° 0 mm 0 mps 756 mmHg 57%
    01:00 +15°C° 0 mm 0 mps 756 mmHg 58%
    02:00 +15°C° 0 mm 0 mps 756 mmHg 59%
    03:00 +14°C° 0 mm 0 mps 755 mmHg 59%
    04:00 +14°C° 0 mm 0 mps 755 mmHg 59%
    05:00 +14°C° 0 mm 0 mps 755 mmHg 59%
    06:00 +16°C° 0 mm 1 mps 755 mmHg 58%
    07:00 +16°C° 0 mm 1 mps 755 mmHg 56%
    08:00 +18°C° 0 mm 1 mps 756 mmHg 55%
    09:00 +19°C° 0 mm 1 mps 755 mmHg 50%
    10:00 +20°C° 0 mm 1 mps 755 mmHg 46%
    11:00 +21°C° 0 mm 2 mps 755 mmHg 41%
    12:00 +21°C° 0 mm 2 mps 755 mmHg 39%
    13:00 +23°C° 0 mm 2 mps 755 mmHg 37%
    14:00 +24°C° 0 mm 2 mps 755 mmHg 35%
    15:00 +23°C° 0 mm 2 mps 755 mmHg 38%
    16:00 +21°C° 0 mm 2 mps 755 mmHg 40%
    17:00 +20°C° 0 mm 2 mps 755 mmHg 43%
    18:00 +19°C° 0 mm 2 mps 755 mmHg 45%
    19:00 +18°C° 0 mm 2 mps 755 mmHg 47%
    20:00 +17°C° 0 mm 2 mps 755 mmHg 49%
    21:00 +17°C° 0 mm 3 mps 756 mmHg 53%
    22:00 +16°C° 0 mm 3 mps 756 mmHg 58%
    23:00 +14°C° 0 mm 3 mps 756 mmHg 62%

    20 October, Saturday

    Time Temperature Precipitation Wind Pressure Humidity
    00:00 +14°C° 0 mm 4 mps 756 mmHg 65%
    01:00 +14°C° 0 mm 4 mps 756 mmHg 69%
    02:00 +14°C° 0 mm 4 mps 756 mmHg 73%
    03:00 +14°C° 0.1 mm 4 mps 756 mmHg 74%
    04:00 +13°C° 0.1 mm 4 mps 756 mmHg 76%
    05:00 +13°C° 0.1 mm 4 mps 756 mmHg 77%
    06:00 +13°C° 0.1 mm 4 mps 757 mmHg 77%
    07:00 +13°C° 0.1 mm 4 mps 757 mmHg 78%
    08:00 +14°C° 0.1 mm 4 mps 757 mmHg 78%
    09:00 +14°C° 0.1 mm 4 mps 757 mmHg 75%
    10:00 +15°C° 0.1 mm 4 mps 758 mmHg 71%
    11:00 +16°C° 0.1 mm 5 mps 758 mmHg 68%
    12:00 +16°C° 0.1 mm 5 mps 758 mmHg 65%
    13:00 +17°C° 0.1 mm 5 mps 758 mmHg 62%
    14:00 +17°C° 0.1 mm 5 mps 758 mmHg 59%
    15:00 +17°C° 0 mm 5 mps 758 mmHg 60%
    16:00 +18°C° 0 mm 4 mps 758 mmHg 61%
    17:00 +17°C° 0 mm 4 mps 758 mmHg 63%
    18:00 +16°C° 0 mm 5 mps 759 mmHg 66%
    19:00 +15°C° 0 mm 5 mps 759 mmHg 69%
    20:00 +14°C° 0 mm 6 mps 759 mmHg 72%
    21:00 +14°C° 0 mm 6 mps 759 mmHg 73%
    22:00 +13°C° 0 mm 5 mps 760 mmHg 75%
    23:00 +12°C° 0 mm 5 mps 760 mmHg 76%

    21 October, Sunday

    Time Temperature Precipitation Wind Pressure Humidity
    00:00 +12°C° 0 mm 5 mps 760 mmHg 76%
    01:00 +12°C° 0 mm 5 mps 760 mmHg 75%
    02:00 +12°C° 0 mm 5 mps 760 mmHg 75%
    03:00 +12°C° 0 mm 5 mps 760 mmHg 75%
    04:00 +10°C° 0 mm 5 mps 760 mmHg 74%
    05:00 +10°C° 0 mm 5 mps 760 mmHg 73%
    06:00 +10°C° 0 mm 5 mps 760 mmHg 71%
    07:00 +10°C° 0 mm 6 mps 760 mmHg 69%
    08:00 +10°C° 0 mm 6 mps 760 mmHg 67%
    09:00 +11°C° 0 mm 6 mps 760 mmHg 61%
    10:00 +11°C° 0 mm 6 mps 760 mmHg 55%
    11:00 +13°C° 0 mm 6 mps 760 mmHg 50%
    12:00 +13°C° 0 mm 6 mps 760 mmHg 47%
    13:00 +14°C° 0 mm 6 mps 759 mmHg 43%
    14:00 +14°C° 0 mm 7 mps 759 mmHg 40%
    15:00 +13°C° 0 mm 6 mps 759 mmHg 41%
    16:00 +13°C° 0 mm 5 mps 759 mmHg 42%
    17:00 +12°C° 0 mm 5 mps 759 mmHg 44%
    18:00 +11°C° 0 mm 4 mps 759 mmHg 47%
    19:00 +11°C° 0 mm 4 mps 759 mmHg 50%
    20:00 +10°C° 0 mm 4 mps 759 mmHg 53%
    21:00 +9°C° 0 mm 3 mps 759 mmHg 57%
    22:00 +9°C° 0 mm 3 mps 759 mmHg 61%
    23:00 +8°C° 0 mm 3 mps 759 mmHg 65%

    22 October, Monday

    Time Temperature Precipitation Wind Pressure Humidity
    00:00 +8°C° 0 mm 3 mps 759 mmHg 69%
    01:00 +7°C° 0 mm 3 mps 758 mmHg 72%
    02:00 +7°C° 0 mm 3 mps 758 mmHg 75%
    03:00 +7°C° 0 mm 3 mps 758 mmHg 78%
    04:00 +5°C° 0 mm 3 mps 758 mmHg 80%
    05:00 +5°C° 0 mm 3 mps 758 mmHg 82%
    06:00 +5°C° 0 mm 3 mps 758 mmHg 80%
    07:00 +6°C° 0 mm 4 mps 759 mmHg 78%
    08:00 +6°C° 0 mm 4 mps 759 mmHg 76%
    09:00 +7°C° 0 mm 5 mps 759 mmHg 68%
    10:00 +9°C° 0 mm 5 mps 759 mmHg 59%
    11:00 +10°C° 0 mm 5 mps 759 mmHg 51%
    12:00 +12°C° 0 mm 5 mps 759 mmHg 48%
    13:00 +12°C° 0 mm 5 mps 758 mmHg 45%
    14:00 +13°C° 0 mm 5 mps 758 mmHg 42%
    15:00 +12°C° 0 mm 5 mps 758 mmHg 45%
    16:00 +12°C° 0 mm 4 mps 758 mmHg 47%
    17:00 +11°C° 0 mm 3 mps 758 mmHg 49%
    18:00 +10°C° 0 mm 3 mps 758 mmHg 52%
    19:00 +9°C° 0 mm 3 mps 758 mmHg 56%
    20:00 +8°C° 0 mm 3 mps 758 mmHg 60%
    21:00 +8°C° 0 mm 3 mps 758 mmHg 62%
    22:00 +8°C° 0 mm 3 mps 758 mmHg 64%
    23:00 +7°C° 0 mm 3 mps 758 mmHg 66%
    Show more